SXM-9

Last updated on Thu Jul 03 2025 00:02:49 GMT+0000 (Coordinated Universal Time)

1 62259U 24234A 25182.62178406 -.00000201 00000+0 00000+0 0 9993 2 62259 0.0187 326.2680 0005741 3.3867 88.9428 1.00272635 2066
UTC large
Height (km)
Speed (km/s)
/
Latitude / Longitude
Inclination (degrees)
Orbital Period (minutes)
Azimuth
Elevation
Range (km)
Doppler Factor

Next 0 passes for location: London (51.5072 / 0.1276)

Sorry there are no passes over London.